Other Public Products
Issued by NWS Charleston, SC

Current Version | Previous Version | Text Only | Print | Product List | Glossary Off
Versions: 1 2 3 4 5 6 7 8 9 10 11 12 13 14 15 16 17 18 19 20 21 22 23 24 25 26 27 28 29 30 31 32 33 34 35 36 37 38 39 40 41 42 43 44 45 46 47 48 49 50

000
FPUS82 KCHS 191827
OPUCHS

TEST...KCHS/KSAV Gateway Observations...TEST
National Weather Service Charleston SC
200 PM EDT WED JUL 19 2017

NOTE: "fair" indicates few or no clouds below 12,000 feet with no
significant weather and/or obstructions to visibility.

SCZ050-WAZ558-NCZ071-TXZ119-213-PAZ071-DCZ001-FLZ074-172-MI076-
NYZ176-178-MAZ016-IL014-TNZ027-NJZ106-GAZ044-MD014-191900-

...Gateway Observations for Charleston International...

CITY           SKY/WX    TMP DP  RH WIND       PRES   REMARKS
Chas Airport   MOSUNNY   88  72  58 S5        30.08F HX  94
6HR MIN TEMP:  76; 6HR MAX TEMP:  91;

Seattle        MOSUNNY   63  51  65 SW10      30.12S
6HR MIN TEMP:  53; 6HR MAX TEMP:  63;

Charlotte      MOSUNNY   90  71  53 VRB3      30.11F HX  96
6HR MIN TEMP:  73; 6HR MAX TEMP:  90;

Dallas DFW     MOSUNNY   95  73  48 SE10      30.11S HX 104
6HR MIN TEMP:  80; 6HR MAX TEMP:  95;

Dallas Love    MOSUNNY   94  71  47 S5        30.12S HX 101
6HR MIN TEMP:  82; 6HR MAX TEMP:  94;

Philladelphia  MOSUNNY   91  68  46 SW8       30.03F HX  95
6HR MIN TEMP:  78; 6HR MAX TEMP:  91;

Wash National  MOSUNNY   93  73  52 S10       30.04F HX 102
6HR MIN TEMP:  81; 6HR MAX TEMP:  93;

Baltimore      MOSUNNY   95  67  39 NW3       30.03F HX  99
6HR MIN TEMP:  78; 6HR MAX TEMP:  95;

Miami          CLOUDY    87  73  62 N7        30.11S HX  94
6HR MIN TEMP:  84; 6HR MAX TEMP:  91;

Detroit        PTSUNNY   89  73  59 VRB3      30.05F HX  97
6HR MIN TEMP:  75; 6HR MAX TEMP:  90;

Newark         MOSUNNY   94  61  33 W13G25    29.99F HX  94
6HR MIN TEMP:  79; 6HR MAX TEMP:  95;

Laguardia      MOSUNNY   91  63  39 NW7       29.98F HX  92
6HR MIN TEMP:  81; 6HR MAX TEMP:  93;

J F K          MOSUNNY   89  73  59 S15       30.01F HX  97
6HR MIN TEMP:  78; 6HR MAX TEMP:  91;

Boston Logan   MOSUNNY   89  68  49 SW13      29.94F HX  93
6HR MIN TEMP:  76; 6HR MAX TEMP:  90;

Ft. Lauderdale LGT RAIN  81  77  88 S5        30.10F
6HR MIN TEMP:  78; 6HR MAX TEMP:  89; 6HR PCP:  0.14;

Chicago O`Hare PTSUNNY   86  71  60 VRB7      30.08F HX  91
6HR MIN TEMP:  75; 6HR MAX TEMP:  87;

Chicago Midway PTSUNNY   88  71  57 N6        30.07F HX  94
6HR MIN TEMP:  75; 6HR MAX TEMP:  88;

Houston Bush   MOSUNNY   91  72  53 CALM      30.13F HX  98
6HR MIN TEMP:  75; 6HR MAX TEMP:  93;

Houston Hobby  MOSUNNY   95  76  53 VRB6      30.12F HX 108
6HR MIN TEMP:  79; 6HR MAX TEMP:  95;

Nashville      PTSUNNY   93  70  46 NW9       30.15F HX  99
6HR MIN TEMP:  76; 6HR MAX TEMP:  93;

Atlanta        MOSUNNY   91  70  49 N5        30.14F HX  96
6HR MIN TEMP:  76; 6HR MAX TEMP:  91;


$$

GAZ044-118-TXZ119-213-NCZ071-DCZ001-MDZ014-506-PAZ021-071-NJZ106-
NYZ176-178-MAZ106-OHZ011-021-055-MIZ076-KYZ091-ILZ014-INZ047-
MNZ060-ONZ431-191900-

...Gateway Observations for Savannah International...

CITY           SKY/WX    TMP DP  RH WIND       PRES   REMARKS
Savannah Arpt  PTSUNNY   89  71  55 CALM      30.10F HX  95
6HR MIN TEMP:  76; 6HR MAX TEMP:  92;

Atlanta        MOSUNNY   91  70  49 N5        30.14F HX  96
6HR MIN TEMP:  76; 6HR MAX TEMP:  91;

Charlotte      MOSUNNY   90  71  53 VRB3      30.11F HX  96
6HR MIN TEMP:  73; 6HR MAX TEMP:  90;

Dallas DFW     MOSUNNY   95  73  48 SE10      30.11S HX 104
6HR MIN TEMP:  80; 6HR MAX TEMP:  95;

Houston Bush   MOSUNNY   91  72  53 CALM      30.13F HX  98
6HR MIN TEMP:  75; 6HR MAX TEMP:  93;

Wash National  MOSUNNY   93  73  52 S10       30.04F HX 102
6HR MIN TEMP:  81; 6HR MAX TEMP:  93;

Wash Dulles    MOSUNNY   90  70  51 W6        30.06F HX  95
6HR MIN TEMP:  76; 6HR MAX TEMP:  90;

Baltimore      MOSUNNY   95  67  39 NW3       30.03F HX  99
6HR MIN TEMP:  78; 6HR MAX TEMP:  95;

Philadelphia   MOSUNNY   91  68  46 SW8       30.03F HX  95
6HR MIN TEMP:  78; 6HR MAX TEMP:  91;

Newark         MOSUNNY   94  61  33 W13G25    29.99F HX  94
6HR MIN TEMP:  79; 6HR MAX TEMP:  95;

Laguardia      MOSUNNY   91  63  39 NW7       29.98F HX  92
6HR MIN TEMP:  81; 6HR MAX TEMP:  93;

J F K          MOSUNNY   89  73  59 S15       30.01F HX  97
6HR MIN TEMP:  78; 6HR MAX TEMP:  91;

Boston         MOSUNNY   89  68  49 SW13      29.94F HX  93
6HR MIN TEMP:  76; 6HR MAX TEMP:  90;

Pittsburg      MOSUNNY   87  68  52 SW6       30.10F HX  90
6HR MIN TEMP:  72; 6HR MAX TEMP:  87;

Akron          MOSUNNY   90  69  50 NW9       30.10F HX  94
6HR MIN TEMP:  76; 6HR MAX TEMP:  90;

Cleveland      MOSUNNY   89  69  51 W9        30.10F HX  93
6HR MIN TEMP:  75; 6HR MAX TEMP:  89;

Cincinnati     PTSUNNY   85  70  60 W8        30.13F
6HR MIN TEMP:  72; 6HR MAX TEMP:  87;

Columbus       SUNNY     87  70  56 SW9       30.09F HX  91
Detroit        PTSUNNY   89  73  59 VRB3      30.05F HX  97
6HR MIN TEMP:  75; 6HR MAX TEMP:  90;

Chicago O`Hare PTSUNNY   86  71  60 VRB7      30.08F HX  91
6HR MIN TEMP:  75; 6HR MAX TEMP:  87;

Minneapolis    CLOUDY    82  54  37 E16       30.07F
6HR MIN TEMP:  66; 6HR MAX TEMP:  82;

Indianapolis   PTSUNNY   86  70  58 W8        30.12F HX  90
6HR MIN TEMP:  71; 6HR MAX TEMP:  87;

Toronto Canada PTSUNNY   84  64  51 SW12G17   30.00F

$$




USA.gov is the U.S. government's official web portal to all federal, state and local government web resources and services.